iso_date,epoch_date,Year,Hour,Min,DOY,POS_DOY,Lat,Lon,BP,Ts,Ta,has_bp,has_ts,has_ta,BuoyID,Buoy_Type,Buoy_Owner,Logistics,Hemisphere
2021-10-13T09:30:05Z,1634117406,2021,9,30,286.3959,286.3959,72.96635,-156.98029,-999.00,-999.00,-999.0,no,no,no,300534062158480,UPTEMPO,PSC,SIZRS,North
2021-10-13T09:40:10Z,1634118011,2021,9,40,286.4029,286.4029,72.9697,-156.9897,-999.00,-999.00,-999.0,no,no,no,300534062158480,UPTEMPO,PSC,SIZRS,North
2021-10-13T09:50:06Z,1634118607,2021,9,50,286.4098,286.4098,72.97321,-156.99874,-999.00,-999.00,-999.0,no,no,no,300534062158480,UPTEMPO,PSC,SIZRS,North
2021-10-13T10:00:11Z,1634119212,2021,10,0,286.4168,286.4168,72.9766,-157.00655,-999.00,-999.00,-999.0,no,no,no,300534062158480,UPTEMPO,PSC,SIZRS,North
2021-10-13T10:10:07Z,1634119808,2021,10,10,286.4237,286.4237,72.97996,-157.01444,-999.00,-999.00,-999.0,no,no,no,300534062158480,UPTEMPO,PSC,SIZRS,North
2021-10-13T10:20:03Z,1634120404,2021,10,20,286.4306,286.4306,72.98325,-157.02184,-999.00,-999.00,-999.0,no,no,no,300534062158480,UPTEMPO,PSC,SIZRS,North
2021-10-13T10:30:08Z,1634121009,2021,10,30,286.4376,286.4376,72.98656,-157.02921,-999.00,-999.00,-999.0,no,no,no,300534062158480,UPTEMPO,PSC,SIZRS,North
2021-10-13T10:40:04Z,1634121605,2021,10,40,286.4445,286.4445,72.98974,-157.0367,-999.00,-999.00,-999.0,no,no,no,300534062158480,UPTEMPO,PSC,SIZRS,North
2021-10-13T10:50:09Z,1634122210,2021,10,50,286.4515,286.4515,72.99308,-157.04447,-999.00,-999.00,-999.0,no,no,no,300534062158480,UPTEMPO,PSC,SIZRS,North
2021-10-13T11:00:05Z,1634122806,2021,11,0,286.4584,286.4584,72.99618,-157.05195,-999.00,-999.00,-999.0,no,no,no,300534062158480,UPTEMPO,PSC,SIZRS,North
2021-10-13T11:10:10Z,1634123411,2021,11,10,286.4654,286.4654,72.99944,-157.0595,-999.00,-999.00,-999.0,no,no,no,300534062158480,UPTEMPO,PSC,SIZRS,North
2021-10-13T11:20:06Z,1634124007,2021,11,20,286.4723,286.4723,73.00254,-157.06657,-999.00,-999.00,-999.0,no,no,no,300534062158480,UPTEMPO,PSC,SIZRS,North
2021-10-13T11:30:11Z,1634124612,2021,11,30,286.4793,286.4793,73.0056,-157.07315,-999.00,-999.00,-999.0,no,no,no,300534062158480,UPTEMPO,PSC,SIZRS,North
2021-10-13T11:40:07Z,1634125208,2021,11,40,286.4862,286.4862,73.00846,-157.07965,-999.00,-999.00,-999.0,no,no,no,300534062158480,UPTEMPO,PSC,SIZRS,North
2021-10-13T11:50:03Z,1634125804,2021,11,50,286.4931,286.4931,73.01131,-157.08609,-999.00,-999.00,-999.0,no,no,no,300534062158480,UPTEMPO,PSC,SIZRS,North
2021-10-13T12:01:00Z,1634126460,2021,12,1,286.5007,286.5007,73.01426,-157.09306,-999.00,-999.00,-999.0,no,no,no,300534062158480,UPTEMPO,PSC,SIZRS,North
2021-10-13T12:10:04Z,1634127005,2021,12,10,286.507,286.507,73.0167,-157.09929,-999.00,-999.00,-999.0,no,no,no,300534062158480,UPTEMPO,PSC,SIZRS,North
2021-10-13T12:20:09Z,1634127610,2021,12,20,286.514,286.514,73.01933,-157.10652,-999.00,-999.00,-999.0,no,no,no,300534062158480,UPTEMPO,PSC,SIZRS,North
2021-10-13T12:30:05Z,1634128206,2021,12,30,286.5209,286.5209,73.02208,-157.11309,-999.00,-999.00,-999.0,no,no,no,300534062158480,UPTEMPO,PSC,SIZRS,North
2021-10-13T12:40:10Z,1634128811,2021,12,40,286.5279,286.5279,73.02472,-157.12015,-999.00,-999.00,-999.0,no,no,no,300534062158480,UPTEMPO,PSC,SIZRS,North
2021-10-13T12:50:06Z,1634129407,2021,12,50,286.5348,286.5348,73.02715,-157.12677,-999.00,-999.00,-999.0,no,no,no,300534062158480,UPTEMPO,PSC,SIZRS,North
2021-10-13T13:00:11Z,1634130012,2021,13,0,286.5418,286.5418,73.0295,-157.1336,-999.00,-999.00,-999.0,no,no,no,300534062158480,UPTEMPO,PSC,SIZRS,North
2021-10-13T13:10:07Z,1634130608,2021,13,10,286.5487,286.5487,73.03188,-157.14058,-999.00,-999.00,-999.0,no,no,no,300534062158480,UPTEMPO,PSC,SIZRS,North
2021-10-13T13:20:12Z,1634131212,2021,13,20,286.5557,286.5557,73.03421,-157.14814,-999.00,-999.00,-999.0,no,no,no,300534062158480,UPTEMPO,PSC,SIZRS,North
2021-10-13T13:30:08Z,1634131809,2021,13,30,286.5626,286.5626,73.03648,-157.15574,-999.00,-999.00,-999.0,no,no,no,300534062158480,UPTEMPO,PSC,SIZRS,North
2021-10-13T13:40:04Z,1634132405,2021,13,40,286.5695,286.5695,73.03884,-157.16353,-999.00,-999.00,-999.0,no,no,no,300534062158480,UPTEMPO,PSC,SIZRS,North
2021-10-13T13:50:09Z,1634133010,2021,13,50,286.5765,286.5765,73.04115,-157.17144,-999.00,-999.00,-999.0,no,no,no,300534062158480,UPTEMPO,PSC,SIZRS,North
2021-10-13T14:00:31Z,1634133632,2021,14,0,286.5837,286.5837,73.04328,-157.17963,-999.00,-999.00,-999.0,no,no,no,300534062158480,UPTEMPO,PSC,SIZRS,North
2021-10-13T14:10:10Z,1634134211,2021,14,10,286.5904,286.5904,73.04534,-157.18752,-999.00,-999.00,-999.0,no,no,no,300534062158480,UPTEMPO,PSC,SIZRS,North
2021-10-13T14:20:06Z,1634134807,2021,14,20,286.5973,286.5973,73.04753,-157.19561,-999.00,-999.00,-999.0,no,no,no,300534062158480,UPTEMPO,PSC,SIZRS,North
2021-10-13T14:30:11Z,1634135412,2021,14,30,286.6043,286.6043,73.04953,-157.20323,-999.00,-999.00,-999.0,no,no,no,300534062158480,UPTEMPO,PSC,SIZRS,North
2021-10-13T14:40:07Z,1634136008,2021,14,40,286.6112,286.6112,73.05154,-157.2112,-999.00,-999.00,-999.0,no,no,no,300534062158480,UPTEMPO,PSC,SIZRS,North
2021-10-13T14:50:12Z,1634136612,2021,14,50,286.6182,286.6182,73.05354,-157.21954,-999.00,-999.00,-999.0,no,no,no,300534062158480,UPTEMPO,PSC,SIZRS,North
2021-10-13T15:00:34Z,1634137235,2021,15,0,286.6254,286.6254,73.0557,-157.22848,-999.00,-999.00,-999.0,no,no,no,300534062158480,UPTEMPO,PSC,SIZRS,North
2021-10-13T15:10:04Z,1634137805,2021,15,10,286.632,286.632,73.05763,-157.23697,-999.00,-999.00,-999.0,no,no,no,300534062158480,UPTEMPO,PSC,SIZRS,North
2021-10-13T15:20:09Z,1634138410,2021,15,20,286.639,286.639,73.05958,-157.24591,-999.00,-999.00,-999.0,no,no,no,300534062158480,UPTEMPO,PSC,SIZRS,North
2021-10-13T15:30:05Z,1634139006,2021,15,30,286.6459,286.6459,73.06167,-157.25505,-999.00,-999.00,-999.0,no,no,no,300534062158480,UPTEMPO,PSC,SIZRS,North
2021-10-13T15:40:10Z,1634139611,2021,15,40,286.6529,286.6529,73.06362,-157.26461,-999.00,-999.00,-999.0,no,no,no,300534062158480,UPTEMPO,PSC,SIZRS,North
2021-10-13T15:50:32Z,1634140233,2021,15,50,286.6601,286.6601,73.06581,-157.27476,-999.00,-999.00,-999.0,no,no,no,300534062158480,UPTEMPO,PSC,SIZRS,North
2021-10-13T16:00:11Z,1634140812,2021,16,0,286.6668,286.6668,73.06782,-157.28427,-999.00,-999.00,-999.0,no,no,no,300534062158480,UPTEMPO,PSC,SIZRS,North
2021-10-13T16:10:07Z,1634141408,2021,16,10,286.6737,286.6737,73.0699,-157.29429,-999.00,-999.00,-999.0,no,no,no,300534062158480,UPTEMPO,PSC,SIZRS,North
2021-10-13T16:20:03Z,1634142004,2021,16,20,286.6806,286.6806,73.07188,-157.30446,-999.00,-999.00,-999.0,no,no,no,300534062158480,UPTEMPO,PSC,SIZRS,North
2021-10-13T16:30:08Z,1634142609,2021,16,30,286.6876,286.6876,73.07399,-157.31495,-999.00,-999.00,-999.0,no,no,no,300534062158480,UPTEMPO,PSC,SIZRS,North
2021-10-13T16:40:13Z,1634143213,2021,16,40,286.6946,286.6946,73.07622,-157.32566,-999.00,-999.00,-999.0,no,no,no,300534062158480,UPTEMPO,PSC,SIZRS,North
2021-10-13T16:50:09Z,1634143810,2021,16,50,286.7015,286.7015,73.07863,-157.33616,-999.00,-999.00,-999.0,no,no,no,300534062158480,UPTEMPO,PSC,SIZRS,North
2021-10-13T17:00:05Z,1634144406,2021,17,0,286.7084,286.7084,73.08098,-157.34692,-999.00,-999.00,-999.0,no,no,no,300534062158480,UPTEMPO,PSC,SIZRS,North
2021-10-13T17:10:10Z,1634145011,2021,17,10,286.7154,286.7154,73.08328,-157.35789,-999.00,-999.00,-999.0,no,no,no,300534062158480,UPTEMPO,PSC,SIZRS,North
2021-10-13T17:20:06Z,1634145607,2021,17,20,286.7223,286.7223,73.08564,-157.36872,-999.00,-999.00,-999.0,no,no,no,300534062158480,UPTEMPO,PSC,SIZRS,North
2021-10-13T17:30:37Z,1634146237,2021,17,30,286.7296,286.7296,73.0881,-157.37949,-999.00,-999.00,-999.0,no,no,no,300534062158480,UPTEMPO,PSC,SIZRS,North
2021-10-13T17:40:07Z,1634146808,2021,17,40,286.7362,286.7362,73.09038,-157.38941,-999.00,-999.00,-999.0,no,no,no,300534062158480,UPTEMPO,PSC,SIZRS,North
2021-10-13T17:50:03Z,1634147404,2021,17,50,286.7431,286.7431,73.09301,-157.40048,-999.00,-999.00,-999.0,no,no,no,300534062158480,UPTEMPO,PSC,SIZRS,North
2021-10-13T18:00:08Z,1634148009,2021,18,0,286.7501,286.7501,73.09569,-157.41168,-999.00,-999.00,-999.0,no,no,no,300534062158480,UPTEMPO,PSC,SIZRS,North
2021-10-13T18:10:13Z,1634148613,2021,18,10,286.7571,286.7571,73.0985,-157.42269,-999.00,-999.00,-999.0,no,no,no,300534062158480,UPTEMPO,PSC,SIZRS,North
2021-10-13T18:20:09Z,1634149210,2021,18,20,286.764,286.764,73.10143,-157.43329,-999.00,-999.00,-999.0,no,no,no,300534062158480,UPTEMPO,PSC,SIZRS,North
2021-10-13T18:30:05Z,1634149806,2021,18,30,286.7709,286.7709,73.10425,-157.44395,-999.00,-999.00,-999.0,no,no,no,300534062158480,UPTEMPO,PSC,SIZRS,North
2021-10-13T18:40:10Z,1634150411,2021,18,40,286.7779,286.7779,73.10723,-157.45459,-999.00,-999.00,-999.0,no,no,no,300534062158480,UPTEMPO,PSC,SIZRS,North
2021-10-13T18:50:06Z,1634151007,2021,18,50,286.7848,286.7848,73.11042,-157.46553,-999.00,-999.00,-999.0,no,no,no,300534062158480,UPTEMPO,PSC,SIZRS,North
2021-10-13T19:00:11Z,1634151612,2021,19,0,286.7918,286.7918,73.11342,-157.476,-999.00,-999.00,-999.0,no,no,no,300534062158480,UPTEMPO,PSC,SIZRS,North
2021-10-13T19:10:16Z,1634152216,2021,19,10,286.7988,286.7988,73.11638,-157.48668,-999.00,-999.00,-999.0,no,no,no,300534062158480,UPTEMPO,PSC,SIZRS,North
2021-10-13T19:20:38Z,1634152838,2021,19,20,286.806,286.806,73.11973,-157.49824,-999.00,-999.00,-999.0,no,no,no,300534062158480,UPTEMPO,PSC,SIZRS,North
2021-10-13T19:30:08Z,1634153409,2021,19,30,286.8126,286.8126,73.1225,-157.50831,-999.00,-999.00,-999.0,no,no,no,300534062158480,UPTEMPO,PSC,SIZRS,North
2021-10-13T19:40:04Z,1634154005,2021,19,40,286.8195,286.8195,73.12551,-157.51937,-999.00,-999.00,-999.0,no,no,no,300534062158480,UPTEMPO,PSC,SIZRS,North
2021-10-13T19:50:09Z,1634154610,2021,19,50,286.8265,286.8265,73.12856,-157.53011,-999.00,-999.00,-999.0,no,no,no,300534062158480,UPTEMPO,PSC,SIZRS,North
2021-10-13T20:00:05Z,1634155206,2021,20,0,286.8334,286.8334,73.13165,-157.54034,-999.00,-999.00,-999.0,no,no,no,300534062158480,UPTEMPO,PSC,SIZRS,North
2021-10-13T20:10:10Z,1634155811,2021,20,10,286.8404,286.8404,73.13472,-157.55035,-999.00,-999.00,-999.0,no,no,no,300534062158480,UPTEMPO,PSC,SIZRS,North
2021-10-13T20:20:06Z,1634156407,2021,20,20,286.8473,286.8473,73.1378,-157.56069,-999.00,-999.00,-999.0,no,no,no,300534062158480,UPTEMPO,PSC,SIZRS,North
2021-10-13T20:30:11Z,1634157012,2021,20,30,286.8543,286.8543,73.14101,-157.57153,-999.00,-999.00,-999.0,no,no,no,300534062158480,UPTEMPO,PSC,SIZRS,North
2021-10-13T20:40:33Z,1634157634,2021,20,40,286.8615,286.8615,73.14437,-157.58246,-999.00,-999.00,-999.0,no,no,no,300534062158480,UPTEMPO,PSC,SIZRS,North
2021-10-13T20:50:12Z,1634158212,2021,20,50,286.8682,286.8682,73.14764,-157.59227,-999.00,-999.00,-999.0,no,no,no,300534062158480,UPTEMPO,PSC,SIZRS,North
2021-10-13T21:00:08Z,1634158809,2021,21,0,286.8751,286.8751,73.15111,-157.60303,-999.00,-999.00,-999.0,no,no,no,300534062158480,UPTEMPO,PSC,SIZRS,North
2021-10-13T21:10:13Z,1634159413,2021,21,10,286.8821,286.8821,73.15443,-157.61384,-999.00,-999.00,-999.0,no,no,no,300534062158480,UPTEMPO,PSC,SIZRS,North
2021-10-13T21:20:09Z,1634160010,2021,21,20,286.889,286.889,73.1579,-157.62419,-999.00,-999.00,-999.0,no,no,no,300534062158480,UPTEMPO,PSC,SIZRS,North
2021-10-13T21:30:05Z,1634160606,2021,21,30,286.8959,286.8959,73.16138,-157.63454,-999.00,-999.00,-999.0,no,no,no,300534062158480,UPTEMPO,PSC,SIZRS,North
2021-10-13T21:40:10Z,1634161211,2021,21,40,286.9029,286.9029,73.16497,-157.64482,-999.00,-999.00,-999.0,no,no,no,300534062158480,UPTEMPO,PSC,SIZRS,North
2021-10-13T21:50:06Z,1634161807,2021,21,50,286.9098,286.9098,73.16854,-157.65513,-999.00,-999.00,-999.0,no,no,no,300534062158480,UPTEMPO,PSC,SIZRS,North
2021-10-13T22:00:37Z,1634162437,2021,22,0,286.9171,286.9171,73.1722,-157.66568,-999.00,-999.00,-999.0,no,no,no,300534062158480,UPTEMPO,PSC,SIZRS,North
2021-10-13T22:10:07Z,1634163008,2021,22,10,286.9237,286.9237,73.17547,-157.67506,-999.00,-999.00,-999.0,no,no,no,300534062158480,UPTEMPO,PSC,SIZRS,North
2021-10-13T22:20:03Z,1634163604,2021,22,20,286.9306,286.9306,73.17888,-157.68517,-999.00,-999.00,-999.0,no,no,no,300534062158480,UPTEMPO,PSC,SIZRS,North
2021-10-13T22:30:08Z,1634164209,2021,22,30,286.9376,286.9376,73.18226,-157.69514,-999.00,-999.00,-999.0,no,no,no,300534062158480,UPTEMPO,PSC,SIZRS,North
2021-10-13T22:40:04Z,1634164805,2021,22,40,286.9445,286.9445,73.18567,-157.70508,-999.00,-999.00,-999.0,no,no,no,300534062158480,UPTEMPO,PSC,SIZRS,North
2021-10-13T22:50:09Z,1634165410,2021,22,50,286.9515,286.9515,73.18908,-157.71513,-999.00,-999.00,-999.0,no,no,no,300534062158480,UPTEMPO,PSC,SIZRS,North
2021-10-13T23:00:05Z,1634166006,2021,23,0,286.9584,286.9584,73.19229,-157.72462,-999.00,-999.00,-999.0,no,no,no,300534062158480,UPTEMPO,PSC,SIZRS,North
2021-10-13T23:10:10Z,1634166611,2021,23,10,286.9654,286.9654,73.19552,-157.73477,-999.00,-999.00,-999.0,no,no,no,300534062158480,UPTEMPO,PSC,SIZRS,North
2021-10-13T23:20:06Z,1634167207,2021,23,20,286.9723,286.9723,73.19864,-157.74472,-999.00,-999.00,-999.0,no,no,no,300534062158480,UPTEMPO,PSC,SIZRS,North
2021-10-13T23:30:11Z,1634167812,2021,23,30,286.9793,286.9793,73.20187,-157.75572,-999.00,-999.00,-999.0,no,no,no,300534062158480,UPTEMPO,PSC,SIZRS,North
2021-10-13T23:40:07Z,1634168408,2021,23,40,286.9862,286.9862,73.20496,-157.76628,-999.00,-999.00,-999.0,no,no,no,300534062158480,UPTEMPO,PSC,SIZRS,North
2021-10-13T23:50:12Z,1634169012,2021,23,50,286.9932,286.9932,73.20811,-157.7767,-999.00,-999.00,-999.0,no,no,no,300534062158480,UPTEMPO,PSC,SIZRS,North
2021-10-14T00:00:25Z,1634169626,2021,0,0,287.0003,287.0003,73.21104,-157.78659,-999.00,-999.00,-999.0,no,no,no,300534062158480,UPTEMPO,PSC,SIZRS,North
2021-10-14T00:10:04Z,1634170205,2021,0,10,287.007,287.007,73.21344,-157.79505,-999.00,-999.00,-999.0,no,no,no,300534062158480,UPTEMPO,PSC,SIZRS,North
2021-10-14T00:20:09Z,1634170810,2021,0,20,287.014,287.014,73.21585,-157.80342,-999.00,-999.00,-999.0,no,no,no,300534062158480,UPTEMPO,PSC,SIZRS,North
2021-10-14T00:30:14Z,1634171414,2021,0,30,287.021,287.021,73.21788,-157.81145,-999.00,-999.00,-999.0,no,no,no,300534062158480,UPTEMPO,PSC,SIZRS,North
2021-10-14T00:40:10Z,1634172011,2021,0,40,287.0279,287.0279,73.21985,-157.81932,-999.00,-999.00,-999.0,no,no,no,300534062158480,UPTEMPO,PSC,SIZRS,North
2021-10-14T00:50:32Z,1634172633,2021,0,50,287.0351,287.0351,73.22194,-157.827,-999.00,-999.00,-999.0,no,no,no,300534062158480,UPTEMPO,PSC,SIZRS,North
2021-10-14T01:00:11Z,1634173212,2021,1,0,287.0418,287.0418,73.22368,-157.83389,-999.00,-999.00,-999.0,no,no,no,300534062158480,UPTEMPO,PSC,SIZRS,North
2021-10-14T01:10:07Z,1634173808,2021,1,10,287.0487,287.0487,73.22569,-157.84167,-999.00,-999.00,-999.0,no,no,no,300534062158480,UPTEMPO,PSC,SIZRS,North
2021-10-14T01:20:03Z,1634174404,2021,1,20,287.0556,287.0556,73.22775,-157.85004,-999.00,-999.00,-999.0,no,no,no,300534062158480,UPTEMPO,PSC,SIZRS,North
2021-10-14T01:30:08Z,1634175009,2021,1,30,287.0626,287.0626,73.22975,-157.8582,-999.00,-999.00,-999.0,no,no,no,300534062158480,UPTEMPO,PSC,SIZRS,North
2021-10-14T01:40:04Z,1634175605,2021,1,40,287.0695,287.0695,73.23171,-157.86644,-999.00,-999.00,-999.0,no,no,no,300534062158480,UPTEMPO,PSC,SIZRS,North
2021-10-14T01:50:09Z,1634176210,2021,1,50,287.0765,287.0765,73.23382,-157.87476,-999.00,-999.00,-999.0,no,no,no,300534062158480,UPTEMPO,PSC,SIZRS,North
2021-10-14T02:00:05Z,1634176806,2021,2,0,287.0834,287.0834,73.23576,-157.8832,-999.00,-999.00,-999.0,no,no,no,300534062158480,UPTEMPO,PSC,SIZRS,North
2021-10-14T02:10:10Z,1634177411,2021,2,10,287.0904,287.0904,73.23772,-157.89196,-999.00,-999.00,-999.0,no,no,no,300534062158480,UPTEMPO,PSC,SIZRS,North
2021-10-14T02:20:06Z,1634178007,2021,2,20,287.0973,287.0973,73.23957,-157.9006,-999.00,-999.00,-999.0,no,no,no,300534062158480,UPTEMPO,PSC,SIZRS,North
2021-10-14T02:30:11Z,1634178612,2021,2,30,287.1043,287.1043,73.24154,-157.90935,-999.00,-999.00,-999.0,no,no,no,300534062158480,UPTEMPO,PSC,SIZRS,North
2021-10-14T02:40:33Z,1634179234,2021,2,40,287.1115,287.1115,73.2434,-157.91805,-999.00,-999.00,-999.0,no,no,no,300534062158480,UPTEMPO,PSC,SIZRS,North
2021-10-14T02:50:03Z,1634179804,2021,2,50,287.1181,287.1181,73.24519,-157.9259,-999.00,-999.00,-999.0,no,no,no,300534062158480,UPTEMPO,PSC,SIZRS,North
2021-10-14T03:00:08Z,1634180409,2021,3,0,287.1251,287.1251,73.24683,-157.93385,-999.00,-999.00,-999.0,no,no,no,300534062158480,UPTEMPO,PSC,SIZRS,North
2021-10-14T03:10:04Z,1634181005,2021,3,10,287.132,287.132,73.24837,-157.94134,-999.00,-999.00,-999.0,no,no,no,300534062158480,UPTEMPO,PSC,SIZRS,North
2021-10-14T03:20:09Z,1634181610,2021,3,20,287.139,287.139,73.24957,-157.94892,-999.00,-999.00,-999.0,no,no,no,300534062158480,UPTEMPO,PSC,SIZRS,North
2021-10-14T03:30:05Z,1634182206,2021,3,30,287.1459,287.1459,73.25061,-157.95642,-999.00,-999.00,-999.0,no,no,no,300534062158480,UPTEMPO,PSC,SIZRS,North
2021-10-14T03:40:10Z,1634182811,2021,3,40,287.1529,287.1529,73.25143,-157.96372,-999.00,-999.00,-999.0,no,no,no,300534062158480,UPTEMPO,PSC,SIZRS,North
2021-10-14T03:50:06Z,1634183407,2021,3,50,287.1598,287.1598,73.25215,-157.97136,-999.00,-999.00,-999.0,no,no,no,300534062158480,UPTEMPO,PSC,SIZRS,North
2021-10-14T04:00:11Z,1634184012,2021,4,0,287.1668,287.1668,73.25284,-157.97962,-999.00,-999.00,-999.0,no,no,no,300534062158480,UPTEMPO,PSC,SIZRS,North
2021-10-14T04:10:07Z,1634184608,2021,4,10,287.1737,287.1737,73.25339,-157.98781,-999.00,-999.00,-999.0,no,no,no,300534062158480,UPTEMPO,PSC,SIZRS,North
2021-10-14T04:20:12Z,1634185212,2021,4,20,287.1807,287.1807,73.25398,-157.99589,-999.00,-999.00,-999.0,no,no,no,300534062158480,UPTEMPO,PSC,SIZRS,North
2021-10-14T04:30:08Z,1634185809,2021,4,30,287.1876,287.1876,73.25441,-158.00413,-999.00,-999.00,-999.0,no,no,no,300534062158480,UPTEMPO,PSC,SIZRS,North
2021-10-14T04:40:13Z,1634186413,2021,4,40,287.1946,287.1946,73.25481,-158.01257,-999.00,-999.00,-999.0,no,no,no,300534062158480,UPTEMPO,PSC,SIZRS,North
2021-10-14T04:50:09Z,1634187010,2021,4,50,287.2015,287.2015,73.25536,-158.02113,-999.00,-999.00,-999.0,no,no,no,300534062158480,UPTEMPO,PSC,SIZRS,North
2021-10-14T05:00:05Z,1634187606,2021,5,0,287.2084,287.2084,73.25573,-158.03003,-999.00,-999.00,-999.0,no,no,no,300534062158480,UPTEMPO,PSC,SIZRS,North
2021-10-14T05:10:10Z,1634188211,2021,5,10,287.2154,287.2154,73.25636,-158.03923,-999.00,-999.00,-999.0,no,no,no,300534062158480,UPTEMPO,PSC,SIZRS,North
2021-10-14T05:20:15Z,1634188815,2021,5,20,287.2224,287.2224,73.25695,-158.04827,-999.00,-999.00,-999.0,no,no,no,300534062158480,UPTEMPO,PSC,SIZRS,North
2021-10-14T05:30:11Z,1634189412,2021,5,30,287.2293,287.2293,73.2578,-158.05836,-999.00,-999.00,-999.0,no,no,no,300534062158480,UPTEMPO,PSC,SIZRS,North
2021-10-14T05:40:50Z,1634190051,2021,5,40,287.2367,287.2367,73.25875,-158.06913,-999.00,-999.00,-999.0,no,no,no,300534062158480,UPTEMPO,PSC,SIZRS,North
2021-10-14T05:50:03Z,1634190604,2021,5,50,287.2431,287.2431,73.25948,-158.07867,-999.00,-999.00,-999.0,no,no,no,300534062158480,UPTEMPO,PSC,SIZRS,North
2021-10-14T06:00:08Z,1634191209,2021,6,0,287.2501,287.2501,73.26052,-158.08986,-999.00,-999.00,-999.0,no,no,no,300534062158480,UPTEMPO,PSC,SIZRS,North
2021-10-14T06:10:04Z,1634191805,2021,6,10,287.257,287.257,73.2615,-158.101,-999.00,-999.00,-999.0,no,no,no,300534062158480,UPTEMPO,PSC,SIZRS,North
2021-10-14T06:20:09Z,1634192410,2021,6,20,287.264,287.264,73.26261,-158.11257,-999.00,-999.00,-999.0,no,no,no,300534062158480,UPTEMPO,PSC,SIZRS,North
2021-10-14T06:30:05Z,1634193006,2021,6,30,287.2709,287.2709,73.26387,-158.12418,-999.00,-999.00,-999.0,no,no,no,300534062158480,UPTEMPO,PSC,SIZRS,North
2021-10-14T06:40:10Z,1634193611,2021,6,40,287.2779,287.2779,73.26508,-158.13561,-999.00,-999.00,-999.0,no,no,no,300534062158480,UPTEMPO,PSC,SIZRS,North
2021-10-14T06:50:06Z,1634194207,2021,6,50,287.2848,287.2848,73.2664,-158.1476,-999.00,-999.00,-999.0,no,no,no,300534062158480,UPTEMPO,PSC,SIZRS,North
2021-10-14T07:00:11Z,1634194812,2021,7,0,287.2918,287.2918,73.26779,-158.16017,-999.00,-999.00,-999.0,no,no,no,300534062158480,UPTEMPO,PSC,SIZRS,North
2021-10-14T07:10:07Z,1634195408,2021,7,10,287.2987,287.2987,73.26906,-158.17257,-999.00,-999.00,-999.0,no,no,no,300534062158480,UPTEMPO,PSC,SIZRS,North
2021-10-14T07:20:12Z,1634196012,2021,7,20,287.3057,287.3057,73.27063,-158.18548,-999.00,-999.00,-999.0,no,no,no,300534062158480,UPTEMPO,PSC,SIZRS,North
2021-10-14T07:30:08Z,1634196609,2021,7,30,287.3126,287.3126,73.27173,-158.19791,-999.00,-999.00,-999.0,no,no,no,300534062158480,UPTEMPO,PSC,SIZRS,North
2021-10-14T07:40:04Z,1634197205,2021,7,40,287.3195,287.3195,73.27295,-158.21076,-999.00,-999.00,-999.0,no,no,no,300534062158480,UPTEMPO,PSC,SIZRS,North
2021-10-14T07:50:18Z,1634197818,2021,7,50,287.3266,287.3266,73.27407,-158.22267,-999.00,-999.00,-999.0,no,no,no,300534062158480,UPTEMPO,PSC,SIZRS,North
2021-10-14T08:01:06Z,1634198466,2021,8,1,287.3341,287.3341,73.27535,-158.23578,-999.00,-999.00,-999.0,no,no,no,300534062158480,UPTEMPO,PSC,SIZRS,North
2021-10-14T08:10:10Z,1634199011,2021,8,10,287.3404,287.3404,73.27616,-158.24519,-999.00,-999.00,-999.0,no,no,no,300534062158480,UPTEMPO,PSC,SIZRS,North
2021-10-14T08:20:06Z,1634199607,2021,8,20,287.3473,287.3473,73.27722,-158.25531,-999.00,-999.00,-999.0,no,no,no,300534062158480,UPTEMPO,PSC,SIZRS,North
2021-10-14T08:30:11Z,1634200212,2021,8,30,287.3543,287.3543,73.27838,-158.26531,-999.00,-999.00,-999.0,no,no,no,300534062158480,UPTEMPO,PSC,SIZRS,North
2021-10-14T08:40:33Z,1634200834,2021,8,40,287.3615,287.3615,73.27967,-158.27561,-999.00,-999.00,-999.0,no,no,no,300534062158480,UPTEMPO,PSC,SIZRS,North
2021-10-14T08:50:03Z,1634201404,2021,8,50,287.3681,287.3681,73.28082,-158.28492,-999.00,-999.00,-999.0,no,no,no,300534062158480,UPTEMPO,PSC,SIZRS,North
2021-10-14T09:00:08Z,1634202009,2021,9,0,287.3751,287.3751,73.28165,-158.29388,-999.00,-999.00,-999.0,no,no,no,300534062158480,UPTEMPO,PSC,SIZRS,North
2021-10-14T09:10:04Z,1634202605,2021,9,10,287.382,287.382,73.28224,-158.30209,-999.00,-999.00,-999.0,no,no,no,300534062158480,UPTEMPO,PSC,SIZRS,North
2021-10-14T09:20:09Z,1634203210,2021,9,20,287.389,287.389,73.28271,-158.3111,-999.00,-999.00,-999.0,no,no,no,300534062158480,UPTEMPO,PSC,SIZRS,North
2021-10-14T09:30:05Z,1634203806,2021,9,30,287.3959,287.3959,73.28303,-158.32,-999.00,-999.00,-999.0,no,no,no,300534062158480,UPTEMPO,PSC,SIZRS,North
2021-10-14T09:40:10Z,1634204411,2021,9,40,287.4029,287.4029,73.28327,-158.32849,-999.00,-999.00,-999.0,no,no,no,300534062158480,UPTEMPO,PSC,SIZRS,North
2021-10-14T09:50:06Z,1634205007,2021,9,50,287.4098,287.4098,73.28347,-158.33657,-999.00,-999.00,-999.0,no,no,no,300534062158480,UPTEMPO,PSC,SIZRS,North
2021-10-14T10:00:11Z,1634205612,2021,10,0,287.4168,287.4168,73.28351,-158.34449,-999.00,-999.00,-999.0,no,no,no,300534062158480,UPTEMPO,PSC,SIZRS,North
2021-10-14T10:10:07Z,1634206208,2021,10,10,287.4237,287.4237,73.28349,-158.35222,-999.00,-999.00,-999.0,no,no,no,300534062158480,UPTEMPO,PSC,SIZRS,North
2021-10-14T10:20:12Z,1634206812,2021,10,20,287.4307,287.4307,73.28343,-158.36009,-999.00,-999.00,-999.0,no,no,no,300534062158480,UPTEMPO,PSC,SIZRS,North
2021-10-14T10:30:08Z,1634207409,2021,10,30,287.4376,287.4376,73.2834,-158.36889,-999.00,-999.00,-999.0,no,no,no,300534062158480,UPTEMPO,PSC,SIZRS,North
2021-10-14T10:40:04Z,1634208005,2021,10,40,287.4445,287.4445,73.28318,-158.37735,-999.00,-999.00,-999.0,no,no,no,300534062158480,UPTEMPO,PSC,SIZRS,North
2021-10-14T10:50:09Z,1634208610,2021,10,50,287.4515,287.4515,73.28298,-158.38622,-999.00,-999.00,-999.0,no,no,no,300534062158480,UPTEMPO,PSC,SIZRS,North
2021-10-14T11:00:14Z,1634209214,2021,11,0,287.4585,287.4585,73.28296,-158.39563,-999.00,-999.00,-999.0,no,no,no,300534062158480,UPTEMPO,PSC,SIZRS,North
2021-10-14T11:10:10Z,1634209811,2021,11,10,287.4654,287.4654,73.28281,-158.40531,-999.00,-999.00,-999.0,no,no,no,300534062158480,UPTEMPO,PSC,SIZRS,North
2021-10-14T11:20:32Z,1634210433,2021,11,20,287.4726,287.4726,73.28272,-158.41431,-999.00,-999.00,-999.0,no,no,no,300534062158480,UPTEMPO,PSC,SIZRS,North
2021-10-14T11:30:11Z,1634211012,2021,11,30,287.4793,287.4793,73.28253,-158.42289,-999.00,-999.00,-999.0,no,no,no,300534062158480,UPTEMPO,PSC,SIZRS,North